Content
SEND FEEDBACK

Daily
Averages
Monthly
Summary
Russia

UST'-USA, RUSSIA


Home > Europe > Russia
Elevation: 253 feet     Latitude: 65 58N     Longitude: 056 55E

WEATHER
 
SELECT A DAY
Number of Records: 83,315;   Date Range: 5/6/00 - 7/19/13
 
SHARE

PRINT THIS DATA

[ ← Previous Day ]
WEATHER ALMANAC - FEBRUARY 13, 2013
[ Next Day → ]
[ °C ]   °F
Weather ElementAverageHighLow
Temperature23.1 °F24.8 °F (6:00 pm)21.2 °F (10:00 am)
Dewpoint21.4 °F24.8 °F (7:00 pm)19.4 °F (7:00 am)
Humidity93.3 %100 % (6:30 am)86 % (7:00 am)
Barometer30.43 in30.51 in (6:00 pm)30.33 in (6:30 am)
Wind Speed10.4 mph13.4 mph (6:30 am)
Weather ElementAverage
Visibility5.6 mi
Wind DirectionNW (311.8 °)

Weather ElementTotal
Precipitation---
Heating Degree Days42 (Base 65)
Averaged from 28 records on February 13, 2013
WEATHER CONDITIONS BREAKOUT
WIND DIRECTION BREAKOUT
WEATHER BY HOUR - FEBRUARY 13, 2013
[ °C ]   °F
Local TimeTemperatureDewpointHumidityBarometerVisibilityWind DirectionWind SpeedGust SpeedPrecipitationEventsConditions
6:30 AM23.0 °F23.0 °F100 %30.33 in6.2 miNW (310°)13.4 mphSnowLight Snow
7:00 AM23.0 °F19.4 °F86 %30.33 in6.2 miNW (310°)13.4 mphSnowLight Snow
7:30 AM23.0 °F19.4 °F86 %30.33 in6.2 miNW (320°)11.2 mphSnowLight Snow
8:00 AM23.0 °F19.4 °F86 %30.33 in6.2 miNW (320°)11.2 mphOvercast
8:30 AM23.0 °F19.4 °F86 %30.36 in6.2 miNW (320°)8.9 mphOvercast
9:00 AM23.0 °F21.2 °F93 %30.36 in6.2 miNW (310°)8.9 mphOvercast
9:30 AM23.0 °F21.2 °F93 %30.36 in6.2 miNW (310°)11.2 mphOvercast
10:00 AM21.2 °F19.4 °F93 %30.39 in6.2 miNW (320°)11.2 mphOvercast
10:30 AM23.0 °F19.4 °F86 %30.39 in6.2 miNW (320°)11.2 mphOvercast
11:00 AM21.2 °F19.4 °F93 %30.39 in6.2 miNW (320°)11.2 mphOvercast
11:30 AM21.2 °F19.4 °F93 %30.42 in6.2 miNW (320°)11.2 mphOvercast
12:00 PM23.0 °F19.4 °F86 %30.42 in6.2 miNW (320°)11.2 mphOvercast
12:30 PM23.0 °F19.4 °F86 %30.42 in6.2 miNW (320°)11.2 mphOvercast
1:00 PM23.0 °F19.4 °F86 %30.42 in6.2 miNW (320°)11.2 mphOvercast
1:30 PM23.0 °F19.4 °F86 %30.45 in1.1 miNW (320°)11.2 mphLight Freezing Drizzle
2:00 PM23.0 °F23.0 °F100 %30.45 in6.2 miNW (320°)11.2 mphOvercast
2:30 PM23.0 °F23.0 °F100 %30.45 in6.2 miNW (320°)11.2 mphOvercast
3:00 PM23.0 °F21.2 °F93 %30.45 in6.2 miNW (320°)11.2 mphOvercast
3:30 PM23.0 °F21.2 °F93 %30.48 in6.2 miNW (310°)8.9 mphOvercast
4:00 PM23.0 °F23.0 °F100 %30.48 in6.2 miWNW (300°)8.9 mphOvercast
4:30 PM23.0 °F23.0 °F100 %30.48 in6.2 miWNW (300°)8.9 mphOvercast
5:00 PM23.0 °F23.0 °F100 %30.48 in1.1 miWNW (300°)8.9 mphLight Freezing Drizzle
5:30 PM23.0 °F23.0 °F100 %30.48 inWNW (300°)8.9 mphLight Freezing Drizzle
6:00 PM24.8 °F23.0 °F93 %30.51 in6.2 miWNW (300°)8.9 mphLight Freezing Drizzle
6:30 PM24.8 °F23.0 °F93 %30.51 in3.7 miWNW (300°)8.9 mphLight Freezing Drizzle
7:00 PM24.8 °F24.8 °F100 %30.51 in5.0 miWNW (300°)8.9 mphLight Freezing Drizzle
7:30 PM24.8 °F24.8 °F100 %30.51 in6.2 miWNW (300°)8.9 mphLight Freezing Drizzle
8:00 PM24.8 °F24.8 °F100 %30.51 in3.1 miWNW (300°)8.9 mphLight Freezing Drizzle
Hourly data recorded from UUYS, located miles away from Ust'-Usa, Russia







STORIES FROM OUR PARTNERS